This demonstration page uses our WeatherBlox Daily Observations layout. Learn more.

Left ArrowRight Arrow

53.62937, 11.41316

Hourly Observations for December 27, 2016

Temp ( °F °C ) Dew Point ( °F °C ) Humidity (%) Winds ( mph kmh ) Pressure ( in mb ) Visibility ( mi km ) Precip ( " mm )
7:50 am 07:50 Mostly Cloudy 46 8 37 3 71 71 WNW 14 22 30.24 1024 30 48 N/A
8:20 am 08:20 Mostly Cloudy 46 8 36 2 66 66 WNW 14 22 30.24 1024 30 48 N/A
8:50 am 08:50 Mostly Cloudy 46 8 37 3 71 71 WNW 9 15 30.27 1025 30 48 N/A
9:20 am 09:20 Mostly Cloudy 46 8 36 2 66 66 WNW 14 22 30.30 1026 30 48 N/A
9:50 am 09:50 Mostly Cloudy 46 8 37 3 71 71 WNW 14 22 30.30 1026 30 48 N/A
10:20 am 10:20 Mostly Cloudy 46 8 37 3 71 71 WNW 15 24 30.33 1027 30 48 N/A
10:50 am 10:50 Mostly Cloudy 46 8 37 3 71 71 WNW 12 19 30.36 1028 30 48 N/A
11:20 am 11:20 Mostly Cloudy 46 8 37 3 71 71 WNW 12 19 30.36 1028 30 48 N/A
11:50 am 11:50 Mostly Cloudy 46 8 37 3 71 71 WNW 13 20 30.39 1029 30 48 N/A
12:20 pm 12:20 Mostly Cloudy 46 8 37 3 71 71 VRB 10 17 30.42 1030 30 48 N/A
12:50 pm 12:50 Mostly Cloudy 46 8 37 3 71 71 NW 12 19 30.42 1030 30 48 N/A
1:20 pm 13:20 Mostly Cloudy 48 9 37 3 66 66 NW 10 17 30.42 1030 30 48 N/A
1:50 pm 13:50 Mostly Cloudy 48 9 37 3 66 66 VRB 9 15 30.45 1031 30 48 N/A
2:20 pm 14:20 Mostly Cloudy 48 9 37 3 66 66 WNW 10 17 30.45 1031 30 48 N/A
2:50 pm 14:50 Mostly Cloudy 48 9 39 4 71 71 WNW 10 17 30.48 1032 30 48 N/A
3:20 pm 15:20 Mostly Cloudy 46 8 39 4 76 76 WNW 8 13 30.48 1032 30 48 N/A
3:50 pm 15:50 Mostly Cloudy 48 9 41 5 76 76 WNW 6 9 30.50 1033 30 48 N/A
4:20 pm 16:20 Mostly Cloudy 48 9 41 5 76 76 VRB 7 11 30.50 1033 30 48 N/A
4:50 pm 16:50 Mostly Cloudy 48 9 41 5 76 76 WNW 14 22 30.50 1033 30 48 N/A
5:20 pm 17:20 Mostly Cloudy 48 9 41 5 76 76 WNW 9 15 30.53 1034 30 48 N/A
5:50 pm 17:50 Mostly Cloudy 46 8 43 6 87 87 WNW 8 13 30.53 1034 30 48 N/A
6:20 pm 18:20 Mostly Cloudy 46 8 43 6 87 87 WNW 8 13 30.53 1034 30 48 N/A

Powered by AerisWeather